Showing default

DOORY-SAT, 58500

Orbit data source: Space-Track

DOORY-SAT, 58500 is a payload satellite owned by Hanwha (KR) in LEO that was launched on Mon, 04 Dec 2023 UTC via an ADD TV2 launch vehicle from the Jeju Sea Launch Area (JJSLA). Payload-class satellites include a variety of spacecraft equipped with specific instruments for various scientific and technological missions. These include communications satellites like Starlink; space stations such as the ISS; scientific satellites like the Hubble; Earth observation satellites from companies like Planet Labs, Umbra, and HawkEye 360; GPS; miniature CubeSats for education and research; and military/defense satellites.

Loading next visibility...
Identifier
58500, 2023-188A
Orbit
LEO
Country
Flag of KRKR / SKOR
Related business
Manufacturer
Hanwha
Mission
Operational Commercial Radar Imaging
Bus & Motor
S-STEP, Unknown motor
Mass
80 kg wet, 80 kg dry
Launch date (UTC)
2023-12-04 (3 years ago)
Launch vehicle
ADD TV2
Launch site
Jeju Sea Launch Area (JJSLA)
Object type
Payload
Rocket body
Debris
Shape & HBR
Box, 1.0 m
Radar Cross Section
2.400 m², Medium (>0.1 m² and < 1m²)

Expand to show TLE details & history
Last TLE update: 21 hours ago

TLE from 21 hours ago
0 DOORY-SAT
1 58500U 23188A   26172.56599641  .00000725  00000-0  11987-3 0  9996
2 58500  46.9832 273.3695 0007407  54.7818 305.3769 14.80636990137648
Epoch: 2026-06-21T13:35Z
TLE epoch observation values (Epoch: 2026-06-21T13:35:02.089Z)
Latitude
-0.00002°
Longitude
159.84634°
Altitude
624.528 km
Speed
7.55 km/s
True Right ascension
18h 13m 28s
True Declination
0° 00' 00"
Sunlit
Object was in full shadow at epoch
Visualization orbit readout
Latitude
Unknown
Longitude
Unknown
Altitude
Unknown
Speed
Unknown
Apparent Right ascension
Unknown
Apparent Declination
Unknown
Sunlit
N/A
Visualization observer readout
Local Sidereal Time
21:43:25
Azimuth
Unknown
Elevation
Unknown
Doppler factor
Unknown
Orbital elements
Apogee altitude
633.754 km
Perigee altitude
623.374 km
Semi-major axis
7,006.701 km
Eccentricity
0.00074
Inclination
46.9832°
RAAN
273.3695°
Arg. of periapsis
54.7818°
True anomaly
305.30766°
Mean anomaly
305.3769°
Eccentric anomaly
305.34228°
Mean motion
3.70061 °/min
Orbital period
97.28 mins
BSTAR
0.00011987
Loading maneuver chart data...
Computing Atmospheric mass density...
Loading historical data...
Loading historical data...
Loading historical data...
Loading historical data...
Loading historical data...
Loading historical data...
Loading historical data...
Other satellites on launch #188 in the year 2023 (2023-12-04 UTC)

Documentation

Showing up to 5 results
|